User: anonymous   Login
Location: Caltech
(34.1382°N, 118.1253°W)
Time: 10:19:32
(UTC-07:00)
Language:

Cosmos 2219 Rocket - Orbit

View from above orbital plane
View from above orbital plane
View from above satellite
View from above satellite

Ground track
Ground track

The orbit data is extracted from the following two-line orbital elements,

1 22220U 92076B   17117.70484742 +.00000126 +00000-0 +87555-4 0  9998
2 22220 070.9989 165.5143 0013361 340.3649 158.7607 14.16412608263626
Epoch (UTC): 27 April 2017 16:54:58
Eccentricity: 0.0013361
inclination: 70.9989°
perigee height: 828 km
apogee height: 847 km
right ascension of ascending node: 165.5143°
argument of perigee: 340.3649°
revolutions per day: 14.16412608
mean anomaly at epoch: 158.7607°
orbit number at epoch: 26362

The dashed part of the orbit path shows where the satellite is in the earth's shadow,  

DLR